GW2753 Weather Reports


time (UTC)temp
C
wind
direction
speed
KPH
gust
KPH
rain 1hr
cm
rain 24hr
cm
rain mn
cm
humidity
%
barometer
mb
20260510141534 17 0 1.6 4.8 0.00 0.00 0.00 84 1014.7
20260510140036 16 0 0.0 3.2 0.00 0.00 0.00 86 1014.6
20260510134542 15 0 0.0 4.8 0.00 0.00 0.00 88 1014.8
20260510133041 14 0 0.0 4.8 0.00 0.00 0.00 90 1014.9
20260510131544 13 180 0.0 3.2 0.00 0.00 0.00 92 1015.1
20260510130039 12 0 0.0 4.8 0.00 0.00 0.00 93 1015.4
20260510125039 11 0 0.0 4.8 0.00 0.00 0.00 93 1015.4
20260510111542 9 180 3.2 4.8 0.00 0.00 0.00 93 1014.5
20260510110050 8 180 1.6 6.4 0.00 0.00 0.00 93 1014.4
20260510104539 8 180 1.6 6.4 0.00 0.00 0.00 93 1014.3
20260510103043 8 0 1.6 4.8 0.00 0.00 0.00 92 1014.2
20260510101535 8 180 3.2 6.4 0.00 0.00 0.00 92 1013.9
20260510100045 8 180 3.2 6.4 0.00 0.00 0.00 92 1013.7
20260510094544 8 0 0.0 1.6 0.00 0.03 0.00 92 1013.6
20260510093041 9 0 0.0 3.2 0.00 0.03 0.00 92 1013.5
20260510091537 9 180 1.6 4.8 0.00 0.03 0.00 92 1013.4
20260510090037 9 180 1.6 4.8 0.00 0.03 0.00 92 1013.2
20260510084550 9 180 1.6 3.2 0.00 0.03 0.00 92 1013.2
20260510083358 9 0 0.0 3.2 0.00 0.03 0.00 92 1013.0
20260510072058 9 180 1.6 4.8 0.00 0.03 0.00 91 1012.8
20260510070048 10 0 0.0 3.2 0.00 0.03 0.00 91 1012.8
20260510064857 10 0 0.0 1.6 0.00 0.03 0.00 91 1012.8
20260510061748 10 0 0.0 3.2 0.00 0.03 0.00 91 1012.9
20260510060046 10 0 0.0 0.0 0.00 0.03 0.00 91 1012.8
20260510054540 10 0 0.0 0.0 0.00 0.03 0.00 90 1012.9
20260510053039 10 0 0.0 0.0 0.00 0.03 0.00 90 1012.9
20260510051536 10 0 0.0 0.0 0.00 0.03 0.00 90 1012.8
20260510050052 11 0 0.0 0.0 0.00 0.03 0.00 90 1013.0
20260510044540 11 0 0.0 0.0 0.00 0.03 0.00 90 1013.1
20260510043042 11 180 0.0 4.8 0.00 0.03 0.00 89 1013.0
20260510033052 12 0 0.0 6.4 0.00 0.03 0.03 88 1012.8
20260510031545 12 180 3.2 6.4 0.00 0.03 0.03 87 1012.4
20260510030109 12 180 1.6 6.4 0.00 0.03 0.03 87 1012.5
20260510024536 12 0 1.6 4.8 0.00 0.03 0.03 86 1012.4
20260510023251 12 180 1.6 4.8 0.00 0.03 0.03 85 1012.2
20260510020042 13 0 0.0 0.0 0.00 0.03 0.03 82 1011.8
20260510014551 14 0 0.0 0.0 0.00 0.03 0.03 80 1011.5
20260510013036 14 0 0.0 0.0 0.00 0.03 0.03 79 1011.3
20260510011542 15 0 0.0 0.0 0.00 0.03 0.03 77 1011.1
20260510010052 15 0 0.0 4.8 0.00 0.03 0.03 76 1010.7
20260510004541 16 0 0.0 4.8 0.00 0.03 0.03 74 1010.6
20260510003039 16 0 0.0 0.0 0.00 0.03 0.03 72 1010.6
20260510001536 17 0 0.0 0.0 0.00 0.03 0.03 70 1010.1
20260510000125 18 0 0.0 3.2 0.00 0.03 0.03 68 1009.9
20260509234540 18 0 0.0 4.8 0.00 0.03 0.03 66 1009.8
20260509233040 20 0 0.0 16.1 0.00 0.03 0.03 60 1009.7
20260509231538 20 180 1.6 9.7 0.00 0.03 0.03 56 1009.8
20260509230040 20 180 4.8 16.1 0.00 0.03 0.03 55 1009.7
20260509224538 20 180 4.8 17.7 0.00 0.03 0.03 55 1009.6
20260509223041 20 180 3.2 16.1 0.00 0.03 0.03 55 1009.7
20260509221540 20 180 4.8 12.9 0.00 0.03 0.03 58 1009.9
20260509220039 20 180 3.2 17.7 0.00 0.03 0.03 56 1009.9
20260509214542 20 180 0.0 6.4 0.00 0.03 0.03 58 1009.9
20260509213040 20 0 0.0 4.8 0.00 0.03 0.03 61 1009.9
20260509211537 20 0 0.0 4.8 0.00 0.03 0.03 64 1009.8
20260509210041 20 180 1.6 8.0 0.00 0.03 0.03 63 1009.8
20260509204541 21 180 1.6 8.0 0.00 0.03 0.03 60 1009.8
20260509203041 21 0 6.4 14.5 0.00 0.03 0.03 53 1009.6
20260509201541 21 180 1.6 6.4 0.00 0.03 0.03 54 1009.4
20260509200040 20 180 1.6 6.4 0.00 0.03 0.03 60 1009.5
20260509194550 20 180 3.2 8.0 0.00 0.03 0.03 58 1009.4
20260509193044 21 180 4.8 12.9 0.00 0.03 0.03 48 1009.6
20260509191540 21 180 4.8 9.7 0.00 0.03 0.03 47 1009.5
20260509190043 21 0 1.6 20.9 0.00 0.03 0.03 47 1009.5
20260509184537 21 0 3.2 16.1 0.00 0.03 0.03 46 1009.5
20260509183035 21 180 4.8 22.5 0.00 0.03 0.03 46 1009.5
20260509181542 21 180 8.0 20.9 0.00 0.03 0.03 45 1009.7
20260509180052 20 180 6.4 19.3 0.00 0.03 0.03 46 1009.7
20260509174542 20 180 8.0 17.7 0.00 0.05 0.03 43 1009.8
20260509173052 21 180 4.8 17.7 0.00 0.05 0.03 49 1010.1
20260509171540 20 180 6.4 17.7 0.00 0.05 0.03 51 1010.0
20260509170044 19 180 3.2 12.9 0.00 0.05 0.03 53 1010.0
20260509164540 19 180 4.8 24.1 0.00 0.05 0.03 53 1010.0
20260509163039 19 180 3.2 19.3 0.00 0.05 0.03 57 1010.1
20260509161551 18 180 8.0 19.3 0.00 0.05 0.03 59 1010.1
20260509160044 17 180 1.6 4.8 0.00 0.05 0.03 68 1010.0
20260509154546 17 0 0.0 4.8 0.00 0.05 0.03 80 1009.8
20260509153053 16 0 0.0 3.2 0.00 0.05 0.03 80 1009.9
20260509151540 16 180 1.6 4.8 0.00 0.05 0.03 80 1010.0
20260509150038 16 0 0.0 4.8 0.00 0.05 0.03 80 1010.1
20260509144536 16 180 0.0 3.2 0.00 0.05 0.03 80 1010.1
20260509143044 16 0 0.0 3.2 0.00 0.05 0.03 82 1010.1